TimeMDT,TemperatureF,Dew PointF,Humidity,Sea Level PressureIn,VisibilityMPH,Wind Direction,Wind SpeedMPH,Gust SpeedMPH,PrecipitationIn,Events,Conditions,WindDirDegrees,DateUTC
12:53 AM,48.0,42.1,80,30.04,10.0,SSE,8.1,-,N/A,,Clear,150,2013-08-13 06:53:00
1:53 AM,45.0,42.1,90,30.06,10.0,SE,5.8,-,N/A,,Clear,130,2013-08-13 07:53:00
2:53 AM,44.1,41.0,89,30.07,10.0,SW,6.9,-,N/A,,Clear,230,2013-08-13 08:53:00
3:53 AM,43.0,39.9,89,30.05,10.0,SE,6.9,-,N/A,,Clear,130,2013-08-13 09:53:00
4:53 AM,43.0,39.9,89,30.06,10.0,SE,9.2,-,N/A,,Clear,140,2013-08-13 10:53:00
5:53 AM,43.0,39.0,86,30.10,10.0,SE,5.8,-,N/A,,Clear,130,2013-08-13 11:53:00
6:53 AM,46.9,41.0,80,30.11,10.0,South,5.8,-,N/A,,Scattered Clouds,190,2013-08-13 12:53:00
7:53 AM,54.0,42.1,64,30.10,10.0,Calm,Calm,-,N/A,,Mostly Cloudy,0,2013-08-13 13:53:00
8:53 AM,57.9,43.0,58,30.11,10.0,WSW,5.8,-,N/A,,Overcast,250,2013-08-13 14:53:00
9:53 AM,59.0,42.1,53,30.12,10.0,Calm,Calm,-,N/A,,Overcast,0,2013-08-13 15:53:00
10:53 AM,64.0,41.0,43,30.11,10.0,Calm,Calm,-,N/A,,Mostly Cloudy,0,2013-08-13 16:53:00
11:53 AM,66.9,39.9,37,30.10,10.0,Calm,Calm,-,N/A,,Clear,0,2013-08-13 17:53:00
12:53 PM,70.0,41.0,35,30.07,10.0,Variable,4.6,-,N/A,,Partly Cloudy,0,2013-08-13 18:53:00
1:53 PM,70.0,39.9,33,30.06,10.0,Variable,5.8,-,N/A,,Mostly Cloudy,0,2013-08-13 19:53:00
2:25 PM,66.2,42.8,43,30.34,10.0,SE,17.3,-,N/A,Thunderstorm,Thunderstorm,130,2013-08-13 20:25:00
2:33 PM,66.2,42.8,43,30.34,10.0,ESE,17.3,-,N/A,Thunderstorm,Thunderstorm,120,2013-08-13 20:33:00
2:53 PM,61.0,48.0,62,30.13,8.0,SE,12.7,-,0.00,Rain-Thunderstorm,Light Thunderstorms and Rain,130,2013-08-13 20:53:00
3:20 PM,60.8,44.6,55,30.35,2.0,SE,12.7,23.0,0.07,Rain-Thunderstorm,Thunderstorms and Rain,140,2013-08-13 21:20:00
3:27 PM,57.2,48.2,72,30.35,1.5,South,20.7,31.1,0.10,Rain-Thunderstorm,Heavy Thunderstorms and Rain,170,2013-08-13 21:27:00
3:34 PM,55.4,48.2,77,30.35,3.0,SSE,18.4,31.1,0.10,Rain-Thunderstorm,Light Thunderstorms and Rain,160,2013-08-13 21:34:00
3:41 PM,57.2,48.2,72,30.36,5.0,SSE,15.0,24.2,0.10,Rain,Light Rain,150,2013-08-13 21:41:00
3:53 PM,55.9,51.1,84,30.17,10.0,South,15.0,20.7,0.10,Rain,Light Rain,170,2013-08-13 21:53:00
4:53 PM,61.0,46.0,58,30.12,10.0,South,15.0,-,0.00,,Partly Cloudy,190,2013-08-13 22:53:00
5:53 PM,63.0,44.1,50,30.12,10.0,SSW,4.6,-,N/A,,Partly Cloudy,200,2013-08-13 23:53:00
6:53 PM,57.9,46.0,65,30.12,10.0,NW,12.7,20.7,N/A,,Clear,320,2013-08-14 00:53:00
7:53 PM,57.0,46.0,67,30.10,10.0,WNW,5.8,-,N/A,,Mostly Cloudy,300,2013-08-14 01:53:00
8:53 PM,57.0,44.1,62,30.09,10.0,WSW,5.8,-,N/A,,Overcast,240,2013-08-14 02:53:00
9:53 PM,54.0,48.0,80,30.11,10.0,Calm,Calm,-,N/A,,Scattered Clouds,0,2013-08-14 03:53:00
10:53 PM,51.1,45.0,80,30.11,10.0,SSE,3.5,-,N/A,,Mostly Cloudy,150,2013-08-14 04:53:00
11:53 PM,51.1,46.9,86,30.10,10.0,ENE,5.8,-,N/A,,Overcast,60,2013-08-14 05:53:00